sat.trackr.live / text

‹ back to catalog

STARLINK-31431

NORAD 59002 · 2024-036E

PAYLOAD ACTIVE UNKNOWN

§ Identity

Operator
Country
US
Launch date
2024-02-23
Launch site
AFWTR
Launch vehicle
Mass (kg)
RCS (m²)

Purposes: comms

External: N2YO · Heavens-Above · Gunter

§ Orbital elements

Epoch: 2026-05-25T04:42:14.855328Z

Period
94.11 min
Inclination
53.1607°
Eccentricity
0.0000997
Mean motion
15.30190176 rev/d
Perigee alt
474.6 km
Apogee alt
475.9 km
Semi-major
6,853.4 km
B*
5.7005e-5
RAAN
82.9829°
Arg perigee
102.4671°
Mean anomaly
257.6441°
Rev number
12,703

§ Raw data

STARLINK-314311 59002U 24036E   26145.19600527  .00001329  00000+0  57005-4 0  99942 59002  53.1607  82.9829 0000997 102.4671 257.6441 15.30190176127039

JSON: /api/v1/satellites/59002 · /tle

For live sub-satellite position, see the globe view (requires WebGL).

§ Visibility from observer

Set your observer location to see the next 7 days of passes ≥ 10°. The values pass through the URL so the page stays shareable.

No JS? Fill the form by hand. The geolocation button needs JavaScript.